Location: Muck Cross
(36.7179°N, 78.3678°W)
Time: 19:52:22
(UTC+00:00)

Courier 1B - Visible Passes

Search period start: 21 March 2023 00:00
Search period end: 31 March 2023 00:00
Orbit: 962 x 1209 km, 28.3° (Epoch: 21 March)

Date Brightness Start Highest point End Pass type
(mag) Time Alt. Az. Time Alt. Az. Time Alt. Az.
21 Mar 8.3 00:20:19 10° WSW 00:26:34 39° S 00:30:54 18° ESE visible
21 Mar 8.8 02:14:05 10° WSW 02:17:47 28° SW 02:17:47 28° SW visible
22 Mar 8.1 01:20:14 10° WSW 01:26:25 39° S 01:27:25 37° SSE visible
23 Mar 8.3 00:26:24 10° WSW 00:32:45 41° S 00:37:02 19° ESE visible
23 Mar 9.1 02:20:33 10° WSW 02:23:56 24° SW 02:23:56 24° SW visible
24 Mar 8.4 01:26:35 10° WSW 01:32:35 34° SSW 01:33:33 33° S visible
25 Mar 8.4 00:32:38 10° WSW 00:38:56 38° S 00:43:11 18° SE visible
25 Mar 9.4 02:27:21 10° WSW 02:30:05 18° SW 02:30:05 18° SW visible
26 Mar 8.7 01:33:08 10° WSW 01:38:39 27° SSW 01:39:43 25° S visible
27 Mar 8.7 00:39:01 10° WSW 00:45:03 32° SSW 00:49:22 16° SE visible
27 Mar 9.8 02:35:01 10° WSW 02:36:16 12° SW 02:36:16 12° SW visible
27 Mar 8.7 23:44:57 10° WSW 23:51:24 36° SSW 23:57:29 10° SE visible
28 Mar 9.2 01:40:09 10° WSW 01:44:39 19° SSW 01:45:57 18° S visible
29 Mar 9.2 00:45:42 10° WSW 00:51:04 24° SSW 00:55:39 12° SSE visible
29 Mar 9.1 23:51:26 10° WSW 23:57:27 29° SSW 00:03:11 10° SE visible
30 Mar 9.7 01:48:46 10° SW 01:50:33 11° SSW 01:52:17 10° SSW visible
